Voltar ao catálogo

THORAD AGENA D DEB

AtivoLEO
NORAD 4720·DEBRIS·🇺🇸 United States

Lançado Apr 8, 1970 de Vandenberg Space Force Base

Loading…

Próximas Passagens (próximas 24 horas)

TLE

AtualizadoSource: Space-Track

Época: Sep 14, 2026, 08:42 UTC

1 04720U 70025CE  26257.36280205  .00000526  00000-0  34718-3 0  9994
2 04720 100.0543 227.3503 0084842  65.8077 295.1927 14.05183981862965

Acompanhe THORAD AGENA D DEB em tempo real com AllMySat

Download on the App Store